Hourly Data Report for April 20, 2016

All times are specified in Local Standard Time (LST). Add 1 hour to adjust for Daylight Saving Time where and when it is observed.

EMERSON AUTO
MANITOBA

49°00'00.000" N
97°14'15.000" W
242.00 m
5020881
71560
WEX

Download Data

Hourly Data (April 2016)
Hourly Data Report for April 20, 2016
Temp Definition
°C
Dew Point Temp Definition
°C
Rel Hum Definition
%
Wind Dir Definition
10's deg

Wind Spd Definition
km/h
Visibility Definition
km
Stn Press Definition
kPa
Hmdx Definition


Wind Chill Definition


Weather Definition


TIME
00:00 10.7 9.8 94 18 12   99.01     LegendNANA
01:00 10.3 9.7 96 18 14   98.98     LegendNANA
02:00 9.9 9.5 98 19 18   98.93     LegendNANA
03:00 9.4 9.3 100 20 14   98.88     LegendNANA
04:00 9.1 9.1 100 20 11   98.85     LegendNANA
05:00 8.9 8.9 100 19 12   98.82     LegendNANA
06:00 8.8 8.8 100 20 14   98.83     LegendNANA
07:00 9.0 9.0 100 20 16   98.82     LegendNANA
08:00 9.6 8.8 95 19 20   98.76     LegendNANA
09:00 9.9 8.7 92 21 19   98.71     LegendNANA
10:00 10.4 9.2 92 21 17   98.72     LegendNANA
11:00 11.2 9.6 90 22 14   98.69     LegendNANA
12:00 12.7 9.6 82 20 9   98.59     LegendNANA
13:00 14.3 10.9 80 19 11   98.51     LegendNANA
14:00 16.1 12.3 78 19 19   98.42     LegendNANA
15:00 17.9 13.2 74 19 23   98.36     LegendNANA
16:00 19.4 11.2 59 22 19   98.31     LegendNANA
17:00 19.6 11.4 59 23 20   98.27     LegendNANA
18:00 18.9 12.2 65 22 16   98.21     LegendNANA
19:00 16.6 12.4 76 21 14   98.16     LegendNANA
20:00 13.6 11.4 87 22 14   98.15     LegendNANA
21:00 12.4 10.3 87 22 14   98.14     LegendNANA
22:00 12.7 10.5 86 21 14   98.14     LegendNANA
23:00 11.5 9.7 89 25 11   98.14     LegendNANA

Notes on Data Quality.

Legend

  • E = Estimated
  • M = Missing
  • NA = Not Available
  • ‡ = Partner data that is not subject to review by the National Climate Archives
Date modified: